Woensdrecht, Netherlands

7:45 PM CEST on September 27, 2016 (GMT +0200)
Woensdrecht Air Base

Weather History for EHWO - December, 2012

Change the Weather History Date:

Sunday, December 9, 2012

  Actual Average Record
Temperature  
Mean Temperature 40 °F -  
Max Temperature 46 °F 42 °F 50 °F (1997)
Min Temperature 35 °F 35 °F 19 °F (2002)
Degree Days  
Heating Degree Days 24    
Moisture  
Dew Point 38 °F    
Average Humidity 91    
Maximum Humidity 100    
Minimum Humidity 81    
Precipitation  
Precipitation 0.00 in - - ()
Sea Level Pressure  
Sea Level Pressure 29.98 in    
Wind  
Wind Speed 13 mph ()    
Max Wind Speed 30 mph    
Max Gust Speed 38 mph    
Visibility 5.1 miles    
Events Rain    
Averages and records for this station are not official NWS values.
T = Trace of Precipitation, MM = Missing Value Source: Averaged Metar Reports

Daily Weather History Graph

Daily Weather History Graph

Search for Another Location

Airport or City:

Trip Planner

Search our weather history database for the weather conditions in past years. The results will help you decide how hot, cold, wet, or windy it might be!

Date:

Astronomy

Dec. 09, 2012 Rise Set
Actual Time 8:36 AM CET 4:34 PM CET
Civil Twilight 7:56 AM CET 5:13 PM CET
Nautical Twilight 7:13 AM CET 5:56 PM CET
Astronomical Twilight 6:32 AM CET 6:37 PM CET
Moon 3:26 AM CET (12/9) 1:52 PM CET (12/9)
Length of Visible Light 9h 17m
Length of Day
7h 57m
Waning Crescent, 21% of the Moon is Illuminated
Dec 9
Waning Crescent
Dec 13
New
Dec 20
First Quarter
Dec 28
Full
Jan 5
Last Quarter

Hourly Weather History & Observations

Time (CET) Temp. Windchill Dew Point Humidity Pressure Visibility Wind Dir Wind Speed Gust Speed Precip Events Conditions
12:25 AM 35.6 °F 28.6 °F 32.0 °F 87% 30.21 in 5.0 mi SW 9.2 mph - N/A   Mostly Cloudy
12:26 AM 35.6 °F 28.6 °F 32.0 °F 87% 30.21 in 4.3 mi SW 9.2 mph - N/A Rain Light Rain
12:33 AM 35.6 °F 28.6 °F 32.0 °F 87% 30.21 in 4.3 mi SW 9.2 mph - N/A Rain Rain
12:44 AM 35.6 °F 28.6 °F 32.0 °F 87% 30.21 in 4.3 mi SW 9.2 mph - N/A   Light Drizzle
12:49 AM 35.6 °F 28.0 °F 32.0 °F 87% 30.21 in 5.0 mi SW 10.4 mph - N/A   Overcast
12:55 AM 35.6 °F 28.0 °F 32.0 °F 87% 30.18 in 4.3 mi SW 10.4 mph - N/A   Mostly Cloudy
1:05 AM 35.6 °F 28.6 °F 32.0 °F 87% 30.18 in 4.3 mi SSW 9.2 mph - N/A Rain Light Rain
1:25 AM 35.6 °F 28.0 °F 32.0 °F 87% 30.18 in 3.7 mi SW 10.4 mph - N/A Rain Light Rain
1:31 AM 35.6 °F 27.5 °F 33.8 °F 93% 30.18 in - SSW 11.5 mph - N/A Rain Light Rain
1:37 AM 35.6 °F 27.5 °F 33.8 °F 93% 30.18 in 3.1 mi SSW 11.5 mph - N/A Rain Light Rain
1:38 AM 35.6 °F 27.5 °F 33.8 °F 93% 30.18 in - SSW 11.5 mph - N/A Rain Light Rain
1:55 AM 35.6 °F 28.0 °F 33.8 °F 93% 30.18 in - SSW 10.4 mph - N/A Rain Light Rain
2:09 AM 35.6 °F 27.5 °F 33.8 °F 93% 30.18 in - SW 11.5 mph - N/A Rain Light Rain
2:10 AM 35.6 °F 27.5 °F 33.8 °F 93% 30.18 in - SW 11.5 mph - N/A Rain Light Rain Showers
2:25 AM 35.6 °F 26.6 °F 33.8 °F 93% 30.18 in - SW 13.8 mph - N/A Rain Light Rain
2:33 AM 35.6 °F 26.6 °F 33.8 °F 93% 30.15 in 3.1 mi SW 13.8 mph - N/A Rain Light Rain
2:37 AM 35.6 °F 26.6 °F 33.8 °F 93% 30.15 in - SW 13.8 mph - N/A Rain Light Rain
2:41 AM 35.6 °F 26.6 °F 33.8 °F 93% 30.15 in 3.1 mi SW 13.8 mph - N/A Rain Light Rain
2:55 AM 35.6 °F 26.6 °F 33.8 °F 93% 30.15 in 3.1 mi SW 13.8 mph - N/A   Overcast
3:13 AM 37.4 °F 28.9 °F 35.6 °F 93% 30.15 in 3.7 mi SW 13.8 mph - N/A   Light Drizzle
3:25 AM 37.4 °F 28.9 °F 35.6 °F 93% 30.15 in 3.7 mi SW 13.8 mph - N/A   Overcast
3:40 AM 35.6 °F 26.2 °F 33.8 °F 93% 30.12 in 3.1 mi SW 15.0 mph - N/A   Overcast
3:44 AM 35.6 °F 26.2 °F 33.8 °F 93% 30.12 in 3.1 mi SW 15.0 mph - N/A Rain Light Rain
3:55 AM 37.4 °F 28.9 °F 33.8 °F 87% 30.12 in 3.1 mi SW 13.8 mph - N/A Rain Light Rain
3:56 AM 37.4 °F 28.9 °F 33.8 °F 87% 30.12 in 3.7 mi SW 13.8 mph - N/A Rain Rain
4:06 AM 37.4 °F 28.5 °F 35.6 °F 93% 30.12 in - SW 15.0 mph - N/A   Drizzle
4:10 AM 37.4 °F 28.5 °F 33.8 °F 87% 30.12 in 3.1 mi SW 15.0 mph - N/A   Drizzle
4:21 AM 35.6 °F 27.1 °F 33.8 °F 93% 30.12 in 3.1 mi SW 12.7 mph - N/A   Light Drizzle
4:25 AM 35.6 °F 27.5 °F 33.8 °F 93% 30.12 in 3.1 mi SW 11.5 mph - N/A   Drizzle
4:29 AM 35.6 °F 27.1 °F 33.8 °F 93% 30.12 in 2.2 mi SW 12.7 mph - N/A   Drizzle
4:33 AM 35.6 °F 27.1 °F 33.8 °F 93% 30.12 in - SW 12.7 mph - N/A Rain Heavy Rain Showers
4:46 AM 35.6 °F 26.6 °F 35.6 °F 100% 30.09 in - SW 13.8 mph - N/A Rain Light Rain
4:55 AM 35.6 °F 27.1 °F 35.6 °F 100% 30.09 in - SW 12.7 mph - N/A   Light Drizzle
5:13 AM 35.6 °F 27.1 °F 35.6 °F 100% 30.09 in 2.8 mi SW 12.7 mph - N/A   Overcast
5:17 AM 35.6 °F 27.1 °F 35.6 °F 100% 30.09 in - SW 12.7 mph - N/A   Overcast
5:25 AM 37.4 °F 29.3 °F 35.6 °F 93% 30.09 in 2.5 mi SW 12.7 mph - N/A   Overcast
5:29 AM 37.4 °F 29.8 °F 35.6 °F 93% 30.09 in - SW 11.5 mph - N/A   Overcast
5:37 AM 37.4 °F 29.8 °F 35.6 °F 93% 30.09 in - SW 11.5 mph - N/A   Overcast
5:43 AM 37.4 °F 29.8 °F 35.6 °F 93% 30.09 in - SW 11.5 mph - N/A   Overcast
5:44 AM 37.4 °F 29.3 °F 35.6 °F 93% 30.06 in 2.2 mi SW 12.7 mph - N/A   Overcast
5:55 AM 37.4 °F 28.9 °F 37.4 °F 100% 30.06 in - SW 13.8 mph - N/A   Overcast
6:25 AM 37.4 °F 29.3 °F 37.4 °F 100% 30.06 in 2.5 mi SW 12.7 mph - N/A   Drizzle
6:55 AM 39.2 °F 31.6 °F 37.4 °F 93% 30.06 in - SW 12.7 mph - N/A Rain Rain
7:25 AM 39.2 °F 31.2 °F 37.4 °F 93% 30.04 in - SW 13.8 mph - N/A   Overcast
7:38 AM 39.2 °F 31.6 °F 39.2 °F 100% 30.04 in - SW 12.7 mph - N/A   Overcast
7:55 AM 39.2 °F 30.5 °F 39.2 °F 100% 30.04 in 3.1 mi SW 16.1 mph - N/A   Drizzle
8:25 AM 39.2 °F 30.5 °F 39.2 °F 100% 30.01 in - SW 16.1 mph - N/A Rain Light Rain
8:55 AM 41.0 °F 33.1 °F 39.2 °F 93% 30.01 in - SW 15.0 mph - N/A Rain Light Rain
9:08 AM 41.0 °F 33.5 °F 41.0 °F 100% 30.01 in - SW 13.8 mph - N/A   Light Drizzle
9:25 AM 41.0 °F 32.8 °F 41.0 °F 100% 30.01 in 3.1 mi WSW 16.1 mph - N/A   Overcast
9:49 AM 42.8 °F 35.1 °F 41.0 °F 93% 30.01 in 5.6 mi WSW 16.1 mph - N/A   Mostly Cloudy
9:55 AM 42.8 °F 35.1 °F 41.0 °F 93% 29.98 in 5.6 mi WSW 16.1 mph - N/A   Mostly Cloudy
9:56 AM 42.8 °F 35.1 °F 41.0 °F 93% 29.98 in 6.2 mi WSW 16.1 mph - N/A   Mostly Cloudy
10:25 AM 42.8 °F 34.5 °F 42.8 °F 100% 29.98 in 6.2 mi WSW 18.4 mph - N/A   Overcast
10:29 AM 42.8 °F 34.8 °F 42.8 °F 100% 29.98 in 6.2 mi WSW 17.3 mph - N/A   Overcast
10:33 AM 42.8 °F 34.8 °F 42.8 °F 100% 29.98 in 6.2 mi WSW 17.3 mph - N/A   Overcast
10:55 AM 42.8 °F 34.8 °F 42.8 °F 100% 29.98 in 6.2 mi WSW 17.3 mph - N/A   Overcast
11:25 AM 42.8 °F 34.5 °F 41.0 °F 93% 29.95 in 6.2 mi WSW 18.4 mph - N/A   Overcast
11:55 AM 42.8 °F 35.1 °F 42.8 °F 100% 29.95 in 6.2 mi WSW 16.1 mph - N/A   Overcast
12:25 PM 44.6 °F 36.4 °F 42.8 °F 93% 29.92 in 6.2 mi West 20.7 mph - N/A   Mostly Cloudy
12:27 PM 44.6 °F 36.4 °F 42.8 °F 93% 29.92 in 6.2 mi West 20.7 mph - N/A   Mostly Cloudy
12:33 PM 44.6 °F 36.6 °F 42.8 °F 93% 29.92 in 6.2 mi West 19.6 mph - N/A   Mostly Cloudy
12:49 PM 44.6 °F 36.6 °F 42.8 °F 93% 29.92 in 6.2 mi West 19.6 mph - N/A   Overcast
12:55 PM 44.6 °F 36.4 °F 42.8 °F 93% 29.92 in 6.2 mi West 20.7 mph - N/A   Overcast
1:06 PM 44.6 °F 36.4 °F 42.8 °F 93% 29.92 in 6.2 mi West 20.7 mph - N/A   Light Drizzle
1:16 PM 44.6 °F 36.4 °F 42.8 °F 93% 29.89 in 6.2 mi West 20.7 mph - N/A   Light Drizzle
1:25 PM 44.6 °F 35.9 °F 42.8 °F 93% 29.89 in 5.0 mi West 23.0 mph 34.5 mph N/A   Drizzle
1:34 PM 44.6 °F 36.1 °F 42.8 °F 93% 29.89 in 6.2 mi West 21.9 mph - N/A   Overcast
1:39 PM 44.6 °F 36.1 °F 42.8 °F 93% 29.89 in 3.1 mi West 21.9 mph - N/A   Heavy Drizzle
1:43 PM 44.6 °F 36.1 °F 42.8 °F 93% 29.89 in 3.7 mi West 21.9 mph - N/A   Heavy Drizzle
1:47 PM 44.6 °F 36.4 °F 42.8 °F 93% 29.89 in 4.3 mi West 20.7 mph - N/A   Drizzle
1:55 PM 44.6 °F 36.1 °F 42.8 °F 93% 29.89 in 5.6 mi West 21.9 mph - N/A   Light Drizzle
2:06 PM 44.6 °F 36.9 °F 42.8 °F 93% 29.89 in 6.2 mi West 18.4 mph - N/A   Overcast
2:25 PM 44.6 °F 36.9 °F 42.8 °F 93% 29.89 in 6.2 mi West 18.4 mph - N/A   Overcast
2:55 PM 46.4 °F 39.5 °F 42.8 °F 87% 29.86 in 6.2 mi West 17.3 mph - N/A   Overcast
3:25 PM 44.6 °F 37.2 °F 41.0 °F 87% 29.86 in 6.2 mi West 17.3 mph - N/A   Overcast
3:42 PM 44.6 °F 37.2 °F 41.0 °F 87% 29.86 in 6.2 mi West 17.3 mph - N/A   Overcast
3:43 PM 44.6 °F 37.2 °F 41.0 °F 87% 29.86 in 6.2 mi West 17.3 mph - N/A   Overcast
3:50 PM 46.4 °F 39.2 °F 41.0 °F 81% 29.86 in 6.2 mi West 18.4 mph - N/A   Mostly Cloudy
3:55 PM 46.4 °F 39.0 °F 41.0 °F 81% 29.86 in 6.2 mi West 19.6 mph - N/A   Overcast
4:05 PM 46.4 °F 39.2 °F 41.0 °F 81% 29.86 in 6.2 mi West 18.4 mph - N/A   Mostly Cloudy
4:08 PM 46.4 °F 39.2 °F 41.0 °F 81% 29.83 in 6.2 mi West 18.4 mph - N/A   Mostly Cloudy
4:18 PM 46.4 °F 39.0 °F 41.0 °F 81% 29.83 in 6.2 mi West 19.6 mph - N/A   Mostly Cloudy
4:25 PM 46.4 °F 39.8 °F 41.0 °F 81% 29.83 in 6.2 mi West 16.1 mph - N/A   Mostly Cloudy
4:55 PM 44.6 °F 37.4 °F 42.8 °F 93% 29.83 in 6.2 mi WSW 16.1 mph - N/A   Overcast
5:01 PM 44.6 °F 37.2 °F 41.0 °F 87% 29.83 in 6.2 mi West 17.3 mph - N/A   Overcast
5:05 PM 44.6 °F 37.4 °F 41.0 °F 87% 29.83 in 4.3 mi West 16.1 mph - N/A Rain Light Rain
5:12 PM 44.6 °F 37.2 °F 41.0 °F 87% 29.83 in 6.2 mi WNW 17.3 mph - N/A Rain Light Rain
5:16 PM 44.6 °F 36.9 °F 41.0 °F 87% 29.83 in 3.7 mi West 18.4 mph 32.2 mph N/A Rain Light Rain
5:17 PM 42.8 °F 34.8 °F 41.0 °F 93% 29.83 in 3.7 mi West 17.3 mph 32.2 mph N/A Rain Light Rain Showers
5:25 PM 42.8 °F 34.8 °F 41.0 °F 93% 29.83 in 6.2 mi West 17.3 mph - N/A Rain Heavy Rain Showers
5:29 PM 42.8 °F 35.1 °F 41.0 °F 93% 29.83 in 6.2 mi West 16.1 mph - N/A Rain Light Rain
5:42 PM 42.8 °F 35.4 °F 39.2 °F 87% 29.83 in 4.3 mi West 15.0 mph - N/A Rain Light Rain
5:43 PM 42.8 °F 35.8 °F 39.2 °F 87% 29.83 in 6.2 mi West 13.8 mph - N/A Rain Light Rain
5:50 PM 42.8 °F 35.4 °F 41.0 °F 93% 29.83 in 6.2 mi West 15.0 mph - N/A   Mostly Cloudy
5:55 PM 42.8 °F 34.8 °F 41.0 °F 93% 29.83 in 4.3 mi West 17.3 mph 28.8 mph N/A Rain Light Rain
6:09 PM 41.0 °F 32.5 °F 39.2 °F 93% 29.83 in 6.2 mi West 17.3 mph - N/A Rain Light Rain
6:25 PM 42.8 °F 35.8 °F 39.2 °F 87% 29.83 in 6.2 mi West 13.8 mph - N/A   Mostly Cloudy
6:55 PM 41.0 °F 34.7 °F 39.2 °F 93% 29.83 in 6.2 mi West 10.4 mph - N/A   Mostly Cloudy
7:25 PM 42.8 °F 35.8 °F 37.4 °F 81% 29.80 in 6.2 mi WNW 13.8 mph - N/A   Mostly Cloudy
7:55 PM 42.8 °F 35.8 °F 37.4 °F 81% 29.80 in 6.2 mi West 13.8 mph - N/A   Mostly Cloudy
8:25 PM 42.8 °F 35.4 °F 37.4 °F 81% 29.80 in 6.2 mi West 15.0 mph - N/A   Overcast
8:55 PM 42.8 °F 35.1 °F 37.4 °F 81% 29.80 in 6.2 mi West 16.1 mph - N/A   Overcast
9:02 PM 41.0 °F 29.8 °F 35.6 °F 81% 29.80 in 6.2 mi WNW 29.9 mph - N/A   Mostly Cloudy
9:13 PM 41.0 °F 31.6 °F 35.6 °F 81% 29.80 in 6.2 mi WNW 20.7 mph 38.0 mph N/A Rain Light Rain
9:25 PM 41.0 °F 32.2 °F 35.6 °F 81% 29.80 in 4.3 mi West 18.4 mph 35.7 mph N/A   Drizzle
9:26 PM 41.0 °F 31.4 °F 37.4 °F 87% 29.80 in 5.6 mi West 21.9 mph 35.7 mph N/A Rain Light Rain
9:42 PM 41.0 °F 32.5 °F 37.4 °F 87% 29.80 in 6.2 mi West 17.3 mph - N/A   Overcast
9:55 PM 41.0 °F 32.8 °F 37.4 °F 87% 29.80 in 6.2 mi WNW 16.1 mph - N/A   Partly Cloudy
10:25 PM 42.8 °F 34.8 °F 37.4 °F 81% 29.80 in 6.2 mi WNW 17.3 mph 28.8 mph N/A   Overcast
10:55 PM 42.8 °F 35.1 °F 37.4 °F 81% 29.80 in 6.2 mi West 16.1 mph - N/A   Mostly Cloudy
11:25 PM 42.8 °F 35.4 °F 37.4 °F 81% 29.80 in 6.2 mi WNW 15.0 mph 26.5 mph N/A   Mostly Cloudy
11:42 PM 42.8 °F 34.8 °F 37.4 °F 81% 29.80 in 6.2 mi WNW 17.3 mph - N/A   Drizzle
11:46 PM 42.8 °F 35.1 °F 37.4 °F 81% 29.80 in 6.2 mi WNW 16.1 mph - N/A   Drizzle
11:55 PM 41.0 °F 32.5 °F 37.4 °F 87% 29.80 in 6.2 mi WNW 17.3 mph - N/A   Mostly Cloudy